Theta_e
314 317 326 323 325 326 326 326 328 329 331 331 332 334 336 337 344 347 339 337 336 327 327 327 326 324 323 322 320 319 319 319 319 318 318 317 317 317 316 316 315 315 315 315 316 316 316 316 317
314 321 325 323 326 326 327 327 328 329 333 333 336 335 338 339 342 342 338 336 333 328 328 328 327 325 324 322 321 319 318 319 319 318 318 317 317 317 317 316 316 316 316 316 317 317 317 318 319
319 325 325 323 325 327 327 329 328 330 337 338 338 338 339 340 341 341 336 336 333 327 328 329 328 326 324 322 321 320 319 319 319 318 318 317 317 317 317 317 317 318 317 317 318 317 318 318 319
330 328 323 323 325 326 327 329 329 331 335 336 337 339 339 340 341 340 337 337 332 327 327 328 327 326 324 323 321 321 320 319 319 318 318 318 318 318 317 317 318 319 318 318 318 318 318 318 318
329 325 324 323 324 326 327 328 328 332 335 334 336 339 338 339 340 337 337 337 335 328 327 327 326 325 324 323 321 320 320 320 319 318 318 318 318 318 318 318 318 319 319 319 319 319 319 319 318
327 325 326 325 325 325 327 327 328 330 333 336 337 338 338 338 338 339 334 335 339 337 327 328 326 325 324 323 321 320 320 320 320 319 319 318 318 318 318 318 319 319 320 320 320 320 320 320 319
330 328 325 323 323 324 325 326 326 328 329 333 336 337 338 338 337 339 335 337 338 339 333 328 327 326 324 323 322 321 320 319 319 319 319 318 318 317 318 318 318 319 320 320 320 321 321 321 320
328 329 329 328 327 325 325 325 325 326 327 330 334 335 336 338 338 338 334 336 337 340 339 334 329 327 326 323 322 321 320 319 318 318 318 318 317 317 317 317 317 318 319 320 320 321 321 321 321
326 330 331 330 329 329 328 327 326 325 325 326 329 331 336 339 338 336 335 336 336 340 341 340 334 328 327 325 323 322 321 320 319 317 316 317 317 317 316 317 317 317 318 319 320 320 321 322 322
325 329 330 329 329 329 328 328 327 326 326 328 328 330 334 337 338 337 336 336 337 339 341 342 342 334 331 328 326 324 321 321 321 320 319 316 316 316 316 316 317 317 317 318 319 320 321 321 322
324 328 329 329 329 329 328 328 327 326 326 326 329 331 335 335 338 339 337 337 337 338 339 341 343 343 340 338 335 335 334 332 329 324 321 320 317 315 315 316 318 318 317 317 318 319 320 320 321
323 324 327 328 329 329 330 329 329 327 326 326 326 330 334 334 335 337 338 338 337 337 338 342 342 343 342 344 345 338 337 332 330 330 333 331 327 321 318 318 324 325 326 320 318 319 320 320 322
319 321 324 325 326 327 328 329 330 328 327 326 326 326 328 335 334 335 338 338 337 338 338 337 344 341 339 338 346 345 341 333 328 332 331 333 337 338 334 327 329 332 333 333 325 321 323 330 334
319 319 320 320 323 326 327 328 329 329 329 328 326 327 327 333 333 333 334 335 335 336 336 336 336 336 336 334 333 345 341 337 340 342 339 333 337 342 341 336 333 334 336 335 334 332 330 337 337
317 319 320 320 320 322 323 325 327 327 328 329 329 328 327 328 332 333 332 333 334 334 334 334 334 336 336 335 328 329 328 331 338 343 345 344 343 344 344 340 336 337 336 337 335 335 335 337 339
314 316 319 320 320 321 321 323 325 324 327 328 329 329 329 328 328 328 331 333 334 333 333 333 333 334 335 334 333 327 327 327 328 330 335 345 344 344 344 342 339 338 337 336 336 336 336 336 336
314 313 315 317 320 320 321 322 324 324 325 327 328 329 330 330 330 330 330 332 332 331 331 331 332 332 335 338 334 332 329 328 326 327 333 342 345 344 345 344 341 340 339 336 335 335 335 335 336
314 315 315 315 316 318 320 322 323 322 322 325 326 327 330 329 330 331 330 332 332 331 332 332 332 332 331 337 337 334 332 327 327 327 334 343 344 344 345 345 343 341 340 338 336 335 335 335 336
316 316 316 317 317 317 318 320 322 324 323 323 324 326 327 329 330 331 331 332 331 332 331 330 330 331 330 328 327 331 330 327 326 329 336 343 344 345 345 345 343 342 341 339 338 336 335 335 335
314 315 315 315 315 316 317 318 320 323 323 324 325 324 325 326 330 328 329 330 331 330 330 329 329 328 328 326 325 326 331 333 333 338 342 345 345 345 345 344 343 344 342 340 338 336 336 335 334
314 313 314 314 315 315 315 316 319 320 322 322 323 324 325 325 325 328 330 329 329 329 328 327 327 327 327 325 325 325 329 330 339 343 344 345 345 345 346 344 342 344 342 340 338 338 336 335 333
313 313 313 313 314 314 315 316 319 319 321 323 323 323 324 324 325 326 328 329 329 329 329 329 328 328 328 327 327 332 335 328 328 342 345 347 347 346 345 344 343 345 343 341 341 338 336 336 338
314 314 314 314 315 314 314 315 315 317 319 322 324 323 323 324 325 325 325 326 326 326 325 325 326 327 327 329 330 331 336 337 341 343 347 348 348 346 346 345 344 344 341 342 341 337 337 338 337
314 313 313 314 315 315 314 315 316 316 318 319 323 323 323 324 323 324 324 324 324 325 326 326 326 326 325 328 329 331 328 333 343 345 344 346 346 344 344 345 342 341 341 342 340 338 339 337 337
313 314 318 315 315 317 314 314 316 317 317 319 320 322 322 323 324 324 324 325 325 324 323 325 325 327 328 328 332 327 327 339 343 347 346 347 345 342 342 341 342 342 340 342 339 338 337 335 329
313 313 316 319 315 314 313 313 315 317 318 317 318 320 321 322 322 323 323 323 324 324 323 323 325 326 325 330 335 331 328 341 350 348 346 346 342 343 342 342 341 340 339 341 339 335 333 330 330
313 314 315 318 315 317 314 313 314 315 318 319 319 320 322 321 322 323 324 326 326 325 327 326 325 327 330 332 332 340 340 345 352 348 347 342 344 343 343 343 341 341 337 336 336 333 332 330 331
315 315 315 316 315 316 314 312 313 317 320 319 320 323 321 322 324 324 325 327 330 329 330 328 328 338 342 345 345 347 350 350 350 346 347 343 346 345 343 342 340 336 339 337 332 331 331 332 331
313 314 315 317 316 315 314 314 317 318 319 318 318 321 323 323 324 328 333 340 338 334 331 333 337 344 346 347 347 349 348 349 349 350 346 347 344 343 339 340 336 337 336 333 333 334 333 332 330
313 315 315 319 316 315 316 317 316 316 315 317 314 322 322 322 323 336 337 339 342 341 340 340 346 347 348 346 348 350 350 348 349 345 343 342 340 337 336 336 335 336 334 331 332 331 331 330 330
Wind_Speed
7 7 2 9 6 7 16 19 20 22 7 16 18 3 7 14 15 5 28 25 23 28 25 21 17 15 14 15 16 18 18 18 16 15 14 12 11 9 7 6 4 3 3 3 3 3 3 3 3
6 6 7 10 8 12 14 20 22 20 6 5 5 2 4 8 21 27 25 29 24 28 26 24 22 17 16 16 16 16 17 17 16 14 13 12 10 9 7 6 4 4 3 3 2 2 2 2 2
7 8 11 6 13 16 17 19 15 10 4 5 2 7 6 7 21 27 25 30 26 26 25 23 21 19 17 16 16 17 16 16 16 15 14 12 11 9 8 7 6 4 4 3 2 1 0 1 2
4 9 10 10 19 19 25 24 25 14 12 6 11 10 8 5 8 24 28 26 24 26 24 23 20 19 17 17 17 17 17 17 16 16 15 13 12 11 10 9 7 6 6 5 4 3 2 3 3
11 12 11 15 19 21 23 25 17 11 9 13 17 7 12 5 11 17 31 27 21 24 25 24 20 20 18 17 17 17 17 17 16 16 15 15 14 13 12 11 10 9 8 7 6 5 5 5 5
5 9 13 15 21 22 20 26 25 11 14 7 17 15 12 15 13 18 23 24 23 20 24 24 21 20 20 18 17 17 17 17 17 17 17 17 16 16 15 14 13 12 12 10 9 9 7 7 6
17 10 13 19 18 24 23 27 23 11 15 20 14 11 12 17 17 19 26 23 23 22 21 23 21 22 22 20 20 18 17 17 18 19 19 19 19 19 18 17 17 15 15 14 13 11 11 9 8
17 10 20 20 18 22 23 25 28 17 18 19 20 7 11 8 21 25 27 25 26 24 21 21 22 21 22 24 23 21 20 19 20 21 21 22 22 22 22 21 21 19 18 17 16 14 14 12 10
25 15 17 23 22 19 23 17 19 18 23 26 23 12 5 10 25 26 26 27 26 25 21 18 21 21 20 24 24 24 23 22 23 24 25 25 26 26 26 26 25 23 21 21 19 17 17 15 13
20 17 26 23 19 17 21 21 19 16 21 21 27 17 8 5 13 20 26 28 26 27 26 21 18 18 17 18 21 22 25 26 26 27 28 29 30 30 29 29 28 26 25 25 22 21 20 19 16
27 26 25 30 32 27 24 23 21 19 21 25 20 23 15 11 20 26 27 26 27 26 27 28 23 19 16 13 15 15 16 20 24 28 31 32 32 33 32 31 29 29 29 29 27 26 25 22 20
26 35 35 35 35 34 26 29 22 21 26 33 30 26 21 17 18 26 28 30 27 29 29 32 18 24 19 15 16 18 18 17 15 17 20 25 29 32 32 33 32 31 28 31 31 29 28 25 20
29 28 36 37 36 36 35 32 30 22 29 35 34 35 25 29 20 16 20 19 12 12 1 22 34 17 14 17 24 24 21 17 15 18 21 24 27 27 27 30 30 30 27 24 27 31 26 20 15
27 32 33 37 36 32 29 30 31 37 29 28 33 34 32 21 19 22 21 18 14 15 19 9 10 14 18 16 24 27 23 19 19 22 25 29 32 30 26 27 30 29 29 25 20 20 22 22 17
27 26 24 28 29 27 31 27 30 38 35 34 30 31 35 31 28 38 26 24 23 22 19 12 9 12 20 21 19 23 22 23 23 26 26 31 34 34 31 27 28 30 29 26 21 23 19 26 23
20 20 21 23 25 29 25 29 30 38 33 30 34 33 34 34 31 28 24 25 22 21 19 21 21 14 24 26 25 25 24 24 24 24 26 31 35 37 33 30 31 30 30 30 27 26 25 23 27
16 20 24 25 25 21 24 32 27 32 31 31 32 35 36 36 35 35 36 34 25 25 28 29 29 27 17 21 22 24 27 28 29 29 28 29 32 35 35 32 31 30 31 31 29 31 29 27 26
17 20 20 25 24 24 26 30 28 34 35 30 32 34 35 41 41 37 41 38 37 33 30 28 29 30 24 19 19 26 30 33 33 30 30 28 31 36 35 32 30 31 30 30 31 30 30 27 25
20 21 24 25 24 26 22 25 28 24 33 30 33 28 33 41 31 32 40 41 49 39 32 28 31 29 27 29 31 36 37 37 35 31 29 27 30 33 35 32 29 32 29 32 28 28 27 27 24
19 22 26 25 23 22 24 29 28 22 22 27 33 34 36 31 33 44 42 29 25 21 22 23 28 30 31 31 36 35 28 23 26 24 25 26 30 31 32 30 28 27 29 29 29 28 29 30 22
20 21 22 24 21 21 25 27 25 27 26 28 30 29 36 38 37 33 32 28 24 25 26 32 34 33 34 30 31 29 27 31 20 21 24 25 30 32 30 27 26 26 27 27 30 28 31 21 18
19 19 21 22 20 15 17 17 22 22 25 22 27 36 31 26 28 34 31 29 28 28 24 25 29 32 32 33 32 31 31 30 33 22 23 28 28 31 27 25 27 24 23 24 22 31 24 22 20
22 22 23 23 21 22 24 15 18 21 25 21 22 33 38 27 32 34 33 31 31 36 36 37 38 37 38 38 32 35 29 25 17 25 25 25 28 26 25 25 29 23 19 22 21 16 19 21 17
19 21 24 23 18 19 24 21 20 20 22 25 22 30 34 35 41 39 39 42 42 39 38 36 38 40 40 40 38 31 31 30 24 25 28 32 31 26 25 23 26 22 18 18 19 14 18 16 16
14 14 11 16 15 17 23 22 18 24 23 25 27 29 30 24 27 24 30 32 34 32 34 31 31 34 34 36 36 34 31 27 26 26 30 30 27 25 22 20 23 19 22 17 16 17 17 18 16
16 16 7 13 15 16 19 17 13 22 23 30 37 32 36 16 23 32 18 22 31 32 29 33 30 31 29 32 33 33 31 30 27 30 30 25 21 20 21 21 19 17 18 15 17 18 18 15 13
17 15 14 11 22 19 18 24 14 21 24 23 26 34 15 17 22 15 16 17 16 21 17 24 26 24 22 25 28 29 29 29 29 24 21 14 19 18 23 23 20 17 15 17 16 15 12 12 12
24 17 15 7 6 16 16 17 14 13 23 18 23 17 23 26 14 11 18 20 20 22 19 21 25 19 22 23 25 25 27 28 22 24 21 17 23 20 22 20 18 15 17 16 13 10 9 12 14
14 16 9 5 5 6 12 11 11 17 21 26 29 29 14 4 12 17 13 8 6 14 17 20 17 21 19 23 24 24 27 26 25 25 21 24 24 22 21 18 14 16 14 10 7 10 13 14 14
9 15 5 8 10 11 13 19 15 21 26 26 33 11 14 7 14 7 16 16 12 13 17 19 22 22 23 22 25 28 28 28 30 27 26 27 24 18 17 14 12 9 9 10 12 11 9 10 12
Wind_Direction
234 205 322 263 243 229 254 243 258 269 246 206 232 307 253 276 62 24 143 143 159 144 146 152 165 166 162 161 158 159 160 160 159 159 158 158 159 155 163 165 166 150 144 124 110 98 87 79 67
206 233 251 267 237 244 247 233 239 249 276 169 82 316 336 280 105 151 149 152 159 147 148 155 160 172 171 173 168 170 174 172 171 172 173 173 171 173 178 183 183 172 178 172 140 115 81 56 41
188 211 254 225 236 246 262 253 218 218 104 75 121 232 233 249 122 141 143 152 160 154 155 161 164 176 179 182 179 177 183 185 185 185 187 186 190 192 198 199 197 191 205 206 182 192 9 340 345
222 214 251 260 249 244 247 276 300 162 145 189 226 187 235 49 80 147 147 151 162 164 171 176 184 191 191 189 189 187 189 194 198 199 200 202 204 206 211 215 214 217 219 226 225 227 255 285 304
253 255 237 251 246 256 276 278 292 293 170 210 228 211 210 191 106 144 154 157 164 167 176 179 192 200 200 198 197 196 196 202 207 210 212 216 217 220 221 223 225 228 233 236 239 244 254 267 280
238 238 255 250 246 253 254 273 287 267 275 241 204 216 208 190 170 166 172 167 161 174 179 178 188 201 205 205 206 207 207 209 212 217 221 226 228 228 230 230 231 233 234 236 238 242 249 258 271
245 223 244 257 266 285 286 309 310 238 252 263 259 238 239 181 178 178 165 165 170 179 191 184 195 205 211 214 215 215 218 221 225 226 227 229 233 235 236 236 236 235 236 239 239 241 247 251 261
227 253 260 259 259 259 277 286 291 302 239 251 249 276 252 243 179 175 169 175 175 171 197 198 202 208 213 219 220 222 225 228 232 235 235 235 237 238 238 237 238 237 238 240 241 242 247 250 254
237 243 246 250 258 271 277 278 282 282 279 260 274 255 288 3 196 168 185 181 183 173 189 220 210 210 216 221 224 227 230 231 236 240 241 239 240 240 240 239 239 238 238 241 241 243 246 250 255
238 241 241 246 257 265 273 285 281 268 264 245 246 241 204 175 165 197 198 186 192 178 182 195 226 221 214 227 231 229 237 240 243 246 246 244 244 244 243 246 243 241 239 240 241 242 245 248 254
234 244 243 250 255 252 268 281 278 274 270 262 229 246 179 211 210 212 199 215 194 198 189 193 199 229 233 231 239 249 248 251 250 249 251 254 249 247 248 249 249 242 238 238 237 238 242 247 251
241 244 248 256 262 276 276 271 252 254 273 282 288 238 244 204 222 216 217 212 216 207 204 185 206 216 228 223 236 252 252 256 256 261 259 257 259 252 247 246 249 251 247 242 240 240 245 248 250
253 251 250 248 248 260 271 271 273 245 255 268 278 284 273 206 200 248 231 231 232 359 337 260 200 218 236 224 208 232 239 247 267 276 280 278 270 262 254 243 239 248 250 251 244 241 246 248 253
263 256 258 259 259 250 242 257 265 259 253 252 266 275 278 203 234 245 252 255 239 207 201 194 211 225 242 239 216 219 229 236 248 262 272 277 273 267 261 247 229 227 245 250 252 238 238 241 248
266 273 276 263 264 256 256 255 246 256 257 255 255 263 270 275 216 218 228 244 249 249 253 233 215 240 252 252 235 222 231 235 234 236 246 253 263 264 260 246 236 228 222 244 243 241 224 224 232
282 273 265 254 247 254 261 265 248 251 257 244 254 257 263 259 262 256 251 235 234 241 241 256 241 237 247 254 250 242 241 244 254 262 251 246 253 258 252 245 232 230 227 219 231 231 225 231 228
243 257 260 266 257 256 231 253 255 255 252 255 244 243 251 252 250 248 250 250 245 244 247 245 246 239 240 248 248 250 252 253 257 263 260 244 247 253 249 241 233 230 230 223 226 227 232 230 235
267 257 252 252 256 262 262 248 244 242 254 248 247 253 242 243 248 246 235 239 243 239 229 227 236 245 232 225 246 254 257 260 261 263 250 242 241 250 247 239 237 221 229 223 224 229 227 229 228
299 294 284 282 292 298 287 269 261 245 229 234 246 251 247 253 253 252 241 241 233 230 222 233 243 244 242 245 245 243 250 257 264 265 259 237 240 239 245 246 225 222 223 224 223 227 226 227 235
281 282 279 286 292 291 285 279 279 274 257 250 227 229 244 258 249 249 251 250 225 206 212 234 242 246 249 255 249 249 252 258 257 251 248 236 235 238 243 245 218 226 219 225 218 224 221 229 230
275 273 278 285 291 281 281 281 278 273 280 275 277 270 230 232 251 254 236 238 243 243 238 246 252 255 257 255 250 250 248 235 230 228 231 236 236 237 244 238 209 227 220 220 220 223 227 230 218
273 273 277 281 280 271 273 275 262 269 263 259 266 273 268 251 249 253 253 245 236 235 241 240 244 250 251 253 247 238 241 242 227 226 230 237 233 236 234 229 196 219 221 216 228 229 229 207 221
310 313 304 286 279 277 266 260 269 268 269 254 251 240 261 256 255 245 246 250 251 255 256 253 249 246 247 246 243 236 225 228 218 216 217 226 236 220 214 212 195 215 220 203 228 224 204 213 217
299 290 283 289 274 263 265 261 264 265 269 268 265 251 238 236 242 249 245 245 250 250 245 241 243 243 241 236 237 233 221 222 219 224 227 223 227 218 212 213 203 210 204 205 217 207 206 202 214
281 293 287 258 252 262 257 255 260 264 265 266 268 274 265 260 244 237 240 234 239 245 249 241 239 235 230 232 227 234 224 223 213 214 215 218 227 209 200 194 192 196 192 200 209 203 213 226 234
273 279 270 282 261 274 291 284 278 311 305 274 269 266 258 258 285 235 241 246 236 234 228 238 232 226 228 221 222 228 235 215 210 214 217 225 197 198 187 186 188 192 187 197 201 219 227 235 236
291 287 239 241 270 263 275 286 256 259 260 268 264 257 235 256 263 251 242 246 244 234 228 222 211 225 232 226 219 213 209 191 202 204 218 187 179 188 185 187 184 184 194 215 224 225 224 226 215
267 290 294 280 302 279 261 267 272 308 346 264 255 261 250 238 226 256 249 243 242 236 230 208 198 200 201 199 198 193 188 183 191 183 179 174 177 186 185 181 179 191 203 217 228 225 219 214 228
300 259 261 10 230 261 276 273 63 354 352 334 329 247 226 221 245 243 229 252 216 199 202 186 185 189 188 185 182 182 177 176 177 169 174 180 171 173 173 178 190 205 219 212 204 212 219 231 238
192 283 256 280 292 288 287 279 18 13 351 338 333 55 283 334 286 239 253 244 230 201 177 176 176 172 170 173 174 169 168 170 164 159 164 165 169 172 167 178 190 190 203 208 222 241 239 240 239